This is the latest recevied weather packets stored in our database for station/object SQ9SMC-13. If no packets are shown the sender has not sent any weather packets the latest 10 day(s).
| Time | Temp. | Humidity | Pressure | Rain* | Wind** | Luminosity | Snow |
|---|---|---|---|---|---|---|---|
| 1777405203 | 1.67° C | 65% | 1025.8 hPa | 0 mm | - | 0 W/m² | - |
| 1777404903 | 1.67° C | 65% | 1025.7 hPa | 0 mm | - | 0 W/m² | - |
| 1777404606 | 1.67° C | 65% | 1025.8 hPa | 0 mm | - | 0 W/m² | - |
| 1777404303 | 2.22° C | 63% | 1025.8 hPa | 0 mm | - | 0 W/m² | - |
| 1777404004 | 2.78° C | 61% | 1025.8 hPa | 0 mm | - | 0 W/m² | - |
| 1777403703 | 2.78° C | 60% | 1025.8 hPa | 0 mm | - | 0 W/m² | - |
| 1777403404 | 3.33° C | 58% | 1025.8 hPa | 0 mm | - | 0 W/m² | - |
| 1777403104 | 3.89° C | 58% | 1025.7 hPa | 0 mm | - | 0 W/m² | - |
| 1777402803 | 3.89° C | 56% | 1025.7 hPa | 0 mm | - | 0 W/m² | - |
| 1777402502 | 4.44° C | 54% | 1025.8 hPa | 0 mm | - | 0 W/m² | - |
| 1777402203 | 5° C | 50% | 1025.6 hPa | 0 mm | - | 0 W/m² | - |
| 1777401907 | 5.56° C | 47% | 1025.7 hPa | 0 mm | - | 0 W/m² | - |
| 1777401604 | 6.11° C | 46% | 1025.8 hPa | 0 mm | - | 0 W/m² | - |
| 1777401306 | 6.11° C | 45% | 1025.5 hPa | 0 mm | - | 0 W/m² | - |
| 1777401004 | 6.11° C | 45% | 1025.6 hPa | 0 mm | - | 0 W/m² | - |
| 1777400703 | 6.11° C | 45% | 1025.4 hPa | 0 mm | - | 0 W/m² | - |
| 1777400405 | 6.11° C | 45% | 1025.4 hPa | 0 mm | - | 0 W/m² | - |
| 1777400104 | 6.67° C | 44% | 1025.2 hPa | 0 mm | - | 0 W/m² | - |
| 1777399805 | 7.22° C | 42% | 1025.2 hPa | 0 mm | - | 1 W/m² | - |
| 1777399504 | 7.22° C | 41% | 1025.1 hPa | 0 mm | - | 1 W/m² | - |
| 1777399206 | 7.78° C | 42% | 1025.2 hPa | 0 mm | - | 2 W/m² | - |
| 1777398903 | 7.78° C | 39% | 1025.2 hPa | 0 mm | - | 4 W/m² | - |
| 1777398603 | 8.33° C | 39% | 1025 hPa | 0 mm | - | 6 W/m² | - |
| 1777398303 | 8.33° C | 38% | 1025.2 hPa | 0 mm | - | 8 W/m² | - |
| 1777398005 | 8.89° C | 38% | 1025 hPa | 0 mm | - | 10 W/m² | - |
* Rain latest hour (hover to see other rain measurements)
** Current wind speed in m/s (hover to see current wind gust speed)